Date,TemperatureHighF,TemperatureAvgF,TemperatureLowF,DewpointHighF,DewpointAvgF,DewpointLowF,HumidityHigh,HumidityAvg,HumidityLow,PressureMaxIn,PressureMinIn,WindSpeedMaxMPH,WindSpeedAvgMPH,GustSpeedMaxMPH,PrecipitationSumIn
2013-9-1,86,74,68,74,69,66,94,85,64,29.95,29.86,17,1,17,0.00
2013-9-2,80,72,68,72,68,66,94,88,72,29.97,29.87,7,1,8,0.01
2013-9-3,90,75,68,74,68,65,95,81,49,29.98,29.87,13,1,13,0.00
2013-9-4,92,55,65,71,21,-100,95,55,45,30.10,29.96,9,-276,9,0.00
2013-9-5,88,51,65,72,11,-100,95,50,46,30.13,30.06,5,-336,5,0.00
2013-9-6,85,44,66,69,-4,-100,95,41,53,30.16,30.05,16,-420,16,0.00
2013-9-7,88,25,67,67,-49,-100,88,19,48,30.13,30.00,8,-695,8,0.00
2013-9-8,91,22,83,72,-58,-100,66,14,48,30.03,29.94,9,-749,9,0.00
2013-9-9,89,20,79,70,-60,-100,71,13,48,30.12,29.99,14,-759,14,0.00
2013-9-10,89,20,78,71,-59,-100,74,15,53,30.22,30.11,10,-756,10,0.00
2013-9-11,90,23,78,69,-56,-100,71,14,43,30.22,30.09,8,-728,8,0.00
2013-9-12,91,29,79,72,-44,-100,73,19,48,30.11,29.91,17,-664,17,0.00
2013-9-13,88,33,60,67,-31,-100,86,25,45,29.93,29.74,13,-569,13,0.00
2013-9-14,80,34,62,66,-28,-100,97,27,45,30.08,29.92,17,-535,17,0.00
2013-9-15,82,46,62,68,2,-100,93,46,55,30.18,30.01,11,-372,11,0.00
2013-9-16,89,70,62,68,61,-100,93,76,45,30.15,29.82,13,-10,13,0.00
2013-9-17,76,61,62,62,44,-100,93,67,55,30.23,30.09,21,-94,21,0.00
2013-9-18,75,55,61,62,28,-100,87,58,59,30.24,30.09,12,-194,12,0.00
2013-9-19,85,38,62,66,-19,-100,89,33,47,30.21,29.97,10,-497,10,0.00
2013-9-20,86,46,64,68,0,-100,92,42,45,30.10,29.82,8,-387,8,0.00
2013-9-21,71,54,61,68,34,-100,93,74,85,29.92,29.70,11,-181,11,0.45
2013-9-22,81,31,61,64,-32,-100,93,28,50,30.11,29.71,8,-570,8,0.01
2013-9-23,78,32,65,62,-30,-100,88,28,53,30.02,29.88,14,-560,14,0.00
2013-9-24,70,41,63,62,-3,-100,89,47,70,30.05,29.90,10,-395,10,0.04
2013-9-25,66,48,62,62,20,-100,92,66,86,29.92,29.85,9,-251,9,1.09
2013-9-26,81,46,61,66,7,-100,92,51,54,30.01,29.83,8,-342,8,0.00
2013-9-27,78,37,65,64,-18,-100,92,34,49,30.14,29.96,43,-484,43,0.00
2013-9-28,75,26,65,58,-43,-100,74,21,51,30.24,30.05,14,-630,14,0.00
2013-9-29,74,24,64,57,-47,-100,70,20,51,30.19,29.98,14,-654,14,0.00
2013-9-30,76,25,64,58,-46,-100,77,20,49,30.13,29.92,10,-652,10,0.00